Overview Statistics Trail Chart Weather Telemetry Raw packets
 

This is the latest recevied weather packets stored in our database for station/object W5ALL-WX. If no packets are shown the sender has not sent any weather packets the latest 10 day(s).

<< 89 90 91 92 93 94 95 >>
Time Temp. Humidity Pressure Rain* Wind** Luminosity Snow
1777326900 26.67° C 5% 1011.9 hPa 0 mm - - -
1777326600 26.67° C 5% 1011.8 hPa 0 mm - - -
1777326300 26.11° C 5% 1011.9 hPa 0 mm - - -
1777326000 26.67° C 5% 1011.9 hPa 0 mm - - -
1777325700 26.67° C 5% 1012 hPa 0 mm - - -
1777325400 26.11° C 5% 1011.9 hPa 0 mm - - -
1777325100 26.11° C 5% 1012 hPa 0 mm - - -
1777324800 26.11° C 6% 1012 hPa 0 mm - - -
1777324500 25.56° C 6% 1012.1 hPa 0 mm - - -
1777324200 26.11° C 6% 1012.2 hPa 0 mm - - -
1777323900 25.56° C 6% 1012.4 hPa 0 mm - - -
1777323600 25° C 6% 1012.5 hPa 0 mm - - -
1777323300 24.44° C 7% 1012.6 hPa 0 mm - - -
1777323000 24.44° C 6% 1012.8 hPa 0 mm - - -
1777322700 25° C 6% 1012.8 hPa 0 mm - - -
1777322400 24.44° C 7% 1012.9 hPa 0 mm - - -
1777322100 24.44° C 7% 1013.1 hPa 0 mm - - -
1777321800 24.44° C 7% 1013.1 hPa 0 mm - - -
1777321500 25° C 6% 1013.3 hPa 0 mm - - -
1777321200 25° C 7% 1013.2 hPa 0 mm - - -
1777320900 24.44° C 7% 1013.3 hPa 0 mm - - -
1777320600 24.44° C 7% 1013.4 hPa 0 mm - - -
1777320300 24.44° C 7% 1013.5 hPa 0 mm - - -
1777320000 24.44° C 8% 1013.5 hPa 0 mm - - -
1777319700 23.89° C 8% 1013.4 hPa 0 mm - - -

* Rain latest hour (hover to see other rain measurements)
** Current wind speed in m/s (hover to see current wind gust speed)